[[{"header":{"parameterUnit":"m.s-1","parameterCategory":1,"la1":30.2991,"la2":30.254,"lo1":-89.0895,"lo2":-89.0444,"dy":0.0017,"dx":0.0017,"nx":28,"ny":28,"refTime":"2025-03-20T03:00:00:Z","depth":0,"parameterNumber":2,"parameterNumberName":"U-component_of_WINDS"},"data":[0,0,0,0,0,0,0,0,0,0,0,0,0,0,0,0,0,0,0,0,0,0,0,0,0,0,0,0,0,0,0,0,0,0,0,0,0,0,0,0,0,0,0,0,0,0,0,0,0,0,0,0,0,0,0,0,0,0,0.1945,0.1945,0,0.1928,0.1928,0.1927,0.1982,0.1984,0.1986,0.1987,0.1965,0.1963,0.1961,0,0,0,0,0,0,0,0,0,0,0,0,0,0.2023,0.2022,0.1945,0.1945,0.1945,0.1928,0.1928,0.1927,0.1982,0.1984,0.1986,0.1988,0.1966,0.1963,0.1961,0,0,0,0,0,0,0,0,0,0,0,0,0,0.1996,0.2021,0.1945,0.197,0.1972,0.1928,0.1928,0.1927,0.1982,0.1984,0.1987,0.1989,0.1967,0.1963,0.196,0.189,0,0,0.195,0.1949,0,0,0,0,0,0,0,0,0.1997,0.1993,0.1967,0.1968,0.1971,0.196,0.1947,0.1915,0.1981,0.1978,0.1987,0.199,0.1961,0.1958,0.1949,0.1889,0.1888,0.195,0.1948,0.1947,0.1946,0,0,0,0,0,0,0,0.1999,0.1994,0.1938,0.1966,0.1969,0.1981,0.198,0.1941,0.1955,0.1978,0.1982,0.198,0.1963,0.1952,0.1949,0.1888,0.195,0.1947,0.1945,0.1944,0.177,0.1767,0,0,0,0,0,0,0.1998,0.1995,0.1939,0.1938,0.1991,0.1978,0.1977,0.1961,0.1956,0.1958,0.1978,0.1982,0.1957,0.1953,0.1949,0.1867,0.1947,0.1944,0.1942,0.1773,0.1769,0.1767,0,0,0,0,0,0,0.2,0.1993,0.1939,0.1968,0.1962,0.1974,0.1955,0.1959,0.1949,0.1955,0.1958,0.1965,0.1959,0.1953,0.1905,0.1867,0.1942,0.1939,0.1776,0.1772,0.1768,0.1701,0,0,0,0,0,0,0.2002,0.1993,0.1967,0.1967,0.196,0.1896,0.1953,0.1957,0.1944,0.195,0.1944,0.1946,0.196,0.1909,0.1902,0.1864,0.1937,0.1779,0.1774,0.1769,0.1707,0.1696,0.1686,0,0,0,0,0,0.2004,0.1947,0.1965,0.1958,0.1928,0.1894,0.189,0.1909,0.194,0.1914,0.1919,0.1946,0.1873,0.1904,0.1896,0.1856,0.1782,0.1775,0.177,0.1712,0.1698,0.1686,0,0,0,0,0,0,0.194,0.1947,0.1967,0.1909,0.19,0.1903,0.187,0.1894,0.1875,0.1881,0.1905,0.1903,0.185,0.1849,0.1883,0.1789,0.1832,0.1824,0.1791,0.1778,0.1768,0.1768,0.1934,0,0,0,0,0,0.1919,0.1892,0.19,0.1848,0.1843,0.1857,0.1843,0.1859,0.1851,0.1847,0.1848,0.1838,0.1813,0.1796,0.1773,0.1708,0.1708,0.1677,0.1666,0.1658,0.165,0.1616,0.1603,0.1747,0.1747,0.1747,0,0,0.1875,0.1876,0.1857,0.1835,0.183,0.1801,0.1853,0.182,0.1798,0.1841,0.1796,0.1797,0.1787,0.173,0.1705,0.1727,0.1611,0.165,0.1643,0.164,0.1609,0.1595,0.1583,0.1743,0.1743,0.1744,0,0,0.1781,0.1779,0.1736,0.1731,0.1725,0.1735,0.1725,0.1724,0.1727,0.1683,0.1715,0.1689,0.1645,0.1638,0.1628,0.1534,0.1558,0.1526,0.147,0.1437,0.1425,0.1416,0.1382,0.137,0.1519,0.1518,0.1518,0,0.1726,0.1685,0.171,0.1675,0.1664,0.1705,0.1661,0.1654,0.164,0.1631,0.1657,0.1604,0.1601,0.1543,0.1521,0.1511,0.15,0.1526,0.1425,0.1416,0.1407,0.1375,0.1362,0.1514,0.1515,0.1515,0.1516,0,0.1619,0.159,0.1555,0.1543,0.1529,0.1489,0.1508,0.149,0.1508,0.1516,0.147,0.1468,0.1446,0.1434,0.145,0.1379,0.1393,0.1422,0.1466,0.1389,0.1359,0.1347,0.1509,0.151,0.1511,0.1512,0,0,0.148,0.1485,0.1471,0.1467,0.1464,0.1442,0.1405,0.1386,0.137,0.1359,0.1329,0.1292,0.132,0.1309,0.1325,0.1296,0.1222,0.1328,0.1328,0.1308,0.1144,0.1122,0.1107,0.1239,0.1237,0.1235,0.1145,0,0.1387,0.1325,0.1348,0.1284,0.1257,0.1297,0.1265,0.1259,0.1266,0.1244,0.1252,0.1226,0.1264,0.1257,0.1231,0.1237,0.1189,0.1244,0.121,0.1208,0.121,0.1092,0.1068,0.0983,0.1133,0.1131,0.113,0,0.1269,0.1256,0.119,0.1195,0.1184,0.1155,0.114,0.1119,0.1114,0.1121,0.1111,0.1134,0.1098,0.1144,0.1094,0.113,0.1119,0.1119,0.1117,0.1113,0.1163,0.1084,0.0956,0.0943,0.1112,0.1114,0.1115,0,0.1174,0.1141,0.1097,0.1092,0.1096,0.1075,0.1075,0.1073,0.106,0.1047,0.1039,0.1022,0.1011,0.0997,0.1015,0.1046,0.0962,0.101,0.0967,0.0966,0.0945,0.0946,0.0812,0.0939,0.094,0.094,0.094,0,0.1067,0.1025,0.1055,0.1028,0.0983,0.101,0.0963,0.0968,0.0966,0.0941,0.0974,0.0949,0.0974,0.0952,0.0966,0.0923,0.0918,0.0922,0.0926,0.0918,0.0918,0.091,0.0916,0.0936,0.0937,0.0938,0.0938,0,0.0952,0.0971,0.0926,0.0935,0.0936,0.0902,0.0908,0.0884,0.0895,0.0862,0.0856,0.0872,0.0847,0.0864,0.0839,0.0848,0.0792,0.0804,0.0794,0.0797,0.0753,0.0757,0.0608,0.059,0.0729,0.0728,0.0727,0,0.0882,0.0851,0.0857,0.0843,0.0842,0.0819,0.0808,0.0833,0.082,0.0814,0.0789,0.0768,0.0753,0.0712,0.072,0.0702,0.0714,0.0663,0.0711,0.0705,0.0712,0.0714,0.0711,0.0652,0.0651,0.0649,0.0648,0,0.0755,0.0767,0.075,0.0736,0.0722,0.0712,0.0704,0.0691,0.0718,0.0701,0.0677,0.0665,0.0641,0.062,0.0605,0.0604,0.063,0.0634,0.0623,0.0614,0.0609,0.0611,0.0767,0.0636,0.0638,0.0639,0.0639,0.064,0.066,0.0635,0.0636,0.0616,0.0614,0.0607,0.0585,0.0594,0.0576,0.0559,0.0576,0.0547,0.0545,0.0528,0.0525,0.0503,0.0524,0.0508,0.0503,0.0499,0.0493,0.0614,0.05,0.0501,0.0501,0.0501,0.0502,0,0.0535,0.0539,0.052,0.051,0.0495,0.0524,0.0518,0.0502,0.0478,0.0474,0.0459,0.0433,0.0413,0.0421,0.0404,0.0384,0.0396,0.0379,0.038,0.0379,0.0475,0.0486,0.037,0.037,0.037,0.037,0.037,0.037,0.0468,0.0428,0.044,0.0399,0.0402,0.0376,0.0371,0.0364,0.0362,0.0332,0.0316,0.0323,0.0324,0.0308,0.0291,0.0294,0.0285,0.0264,0.0271,0.036,0.0372,0.0385,0.0395,0.0262,0.0262,0.0177,0.0176,0.0175]},{"header":{"parameterUnit":"m.s-1","parameterCategory":1,"la1":30.2991,"la2":30.254,"lo1":-89.0895,"lo2":-89.0444,"dy":0.0017,"dx":0.0017,"nx":28,"ny":28,"refTime":"2025-03-20T03:00:00:Z","depth":0,"parameterNumber":3,"parameterNumberName":"V-component_of_WINDS"},"data":[0,0,0,0,0,0,0,0,0,0,0,0,0,0,0,0,0,0,0,0,0,0,0,0,0,0,0,0,0,0,0,0,0,0,0,0,0,0,0,0,0,0,0,0,0,0,0,0,0,0,0,0,0,0,0,0,0,0,-4.5447,-4.5449,0,-4.5612,-4.5614,-4.5615,-4.5545,-4.5541,-4.5537,-4.5533,-4.5699,-4.5707,-4.5715,0,0,0,0,0,0,0,0,0,0,0,0,0,-4.5066,-4.5074,-4.5447,-4.5449,-4.5451,-4.5611,-4.5614,-4.5616,-4.5546,-4.5541,-4.5536,-4.5532,-4.5696,-4.5706,-4.5715,0,0,0,0,0,0,0,0,0,0,0,0,0,-4.5231,-4.5076,-4.5446,-4.5435,-4.5436,-4.5611,-4.5614,-4.5617,-4.5547,-4.5541,-4.5535,-4.5529,-4.5693,-4.5705,-4.5717,-4.5911,0,0,-4.5754,-4.5759,0,0,0,0,0,0,0,0,-4.5222,-4.5245,-4.5435,-4.5436,-4.5438,-4.5552,-4.554,-4.5715,-4.5548,-4.5505,-4.5533,-4.5526,-4.5655,-4.5669,-4.5713,-4.5919,-4.5926,-4.5755,-4.5762,-4.5768,-4.5771,0,0,0,0,0,0,0,-4.5211,-4.5238,-4.5512,-4.5438,-4.5439,-4.5421,-4.5437,-4.5573,-4.5611,-4.5508,-4.5503,-4.5524,-4.5654,-4.5702,-4.5717,-4.5928,-4.5755,-4.5765,-4.5773,-4.5778,-4.6299,-4.6305,0,0,0,0,0,0,-4.52,-4.5229,-4.5507,-4.5517,-4.5313,-4.5432,-4.5451,-4.5521,-4.5609,-4.5617,-4.5529,-4.552,-4.5684,-4.5703,-4.5722,-4.5954,-4.5767,-4.5779,-4.5786,-4.6293,-4.6301,-4.6308,0,0,0,0,0,0,-4.5192,-4.5225,-4.55,-4.5372,-4.5405,-4.5445,-4.5524,-4.5528,-4.5575,-4.5625,-4.5631,-4.5571,-4.568,-4.5705,-4.5864,-4.5959,-4.5784,-4.5795,-4.6285,-4.6295,-4.6304,-4.6421,0,0,0,0,0,0,-4.5181,-4.5223,-4.5299,-4.5374,-4.5412,-4.5641,-4.553,-4.5535,-4.5597,-4.5587,-4.5666,-4.5674,-4.5677,-4.5847,-4.5877,-4.5973,-4.5805,-4.6277,-4.6289,-4.6301,-4.6409,-4.6434,-4.6455,0,0,0,0,0,-4.5168,-4.5325,-4.5303,-4.5337,-4.5508,-4.5647,-4.5669,-4.5671,-4.5605,-4.568,-4.5712,-4.5671,-4.5944,-4.5864,-4.5897,-4.5998,-4.6271,-4.6286,-4.63,-4.6399,-4.6429,-4.6454,0,0,0,0,0,0,-4.5259,-4.5334,-4.5311,-4.5497,-4.5566,-4.5635,-4.573,-4.5703,-4.5792,-4.5778,-4.5776,-4.5794,-4.5959,-4.5994,-4.5903,-4.6189,-4.6097,-4.6119,-4.6161,-4.619,-4.6212,-4.62,-4.5815,0,0,0,0,0,-4.53,-4.5408,-4.5468,-4.5626,-4.5662,-4.5691,-4.5751,-4.5747,-4.5818,-4.5846,-4.589,-4.5959,-4.606,-4.6127,-4.6223,-4.6413,-4.6429,-4.6499,-4.6522,-4.6541,-4.656,-4.6661,-4.6693,-4.6356,-4.6356,-4.6356,0,0,-4.5387,-4.5442,-4.551,-4.5646,-4.5699,-4.5809,-4.5716,-4.5837,-4.5918,-4.5864,-4.6017,-4.6052,-4.6128,-4.6304,-4.6384,-4.6339,-4.6656,-4.6559,-4.6574,-4.6583,-4.668,-4.6712,-4.674,-4.6366,-4.6364,-4.6363,0,0,-4.5602,-4.5655,-4.5792,-4.5847,-4.5929,-4.5946,-4.5979,-4.6052,-4.6073,-4.6227,-4.6188,-4.6284,-4.6459,-4.6515,-4.6566,-4.6801,-4.6766,-4.6832,-4.6952,-4.7051,-4.7077,-4.7101,-4.7183,-4.7213,-4.685,-4.6851,-4.6851,0,-4.57,-4.5866,-4.5865,-4.599,-4.6049,-4.6007,-4.6144,-4.6197,-4.6306,-4.6347,-4.6295,-4.6513,-4.6562,-4.6749,-4.6806,-4.6849,-4.6885,-4.6823,-4.7074,-4.7097,-4.7119,-4.7198,-4.7229,-4.6858,-4.6857,-4.6857,-4.6856,0,-4.5981,-4.6097,-4.6197,-4.6304,-4.6375,-4.6505,-4.6523,-4.6594,-4.6583,-4.6605,-4.6761,-4.6818,-4.6924,-4.6968,-4.6958,-4.7154,-4.7123,-4.7073,-4.698,-4.7159,-4.7232,-4.7262,-4.6869,-4.6866,-4.6864,-4.6862,0,0,-4.6259,-4.6363,-4.6399,-4.6446,-4.6533,-4.6621,-4.6748,-4.6853,-4.6914,-4.6989,-4.7095,-4.7243,-4.7196,-4.7255,-4.725,-4.7338,-4.7518,-4.7276,-4.7278,-4.7318,-4.7735,-4.7772,-4.7807,-4.7495,-4.7501,-4.7505,-4.7728,0,-4.6479,-4.6704,-4.6706,-4.6912,-4.7018,-4.6977,-4.7088,-4.7152,-4.7176,-4.7267,-4.7292,-4.7397,-4.7329,-4.7363,-4.7448,-4.7478,-4.7601,-4.7462,-4.7592,-4.7596,-4.7573,-4.7845,-4.7886,-4.8093,-4.7757,-4.7762,-4.7765,0,-4.6767,-4.6853,-4.7069,-4.7139,-4.7183,-4.7283,-4.7378,-4.7466,-4.7537,-4.7548,-4.7613,-4.7595,-4.7722,-4.7625,-4.78,-4.7705,-4.7758,-4.778,-4.7788,-4.78,-4.7691,-4.7864,-4.8159,-4.819,-4.7811,-4.7807,-4.7804,0,-4.6947,-4.7116,-4.7267,-4.7309,-4.7394,-4.7464,-4.7503,-4.7568,-4.763,-4.7712,-4.7752,-4.7848,-4.79,-4.7974,-4.7981,-4.791,-4.8157,-4.8061,-4.8168,-4.8168,-4.8222,-4.8218,-4.8529,-4.8257,-4.8256,-4.8256,-4.8255,0,-4.7193,-4.7327,-4.7349,-4.7442,-4.7589,-4.759,-4.7736,-4.7768,-4.7826,-4.7923,-4.7893,-4.7985,-4.7989,-4.8082,-4.8089,-4.8231,-4.8255,-4.8266,-4.8267,-4.8269,-4.8268,-4.8304,-4.8289,-4.8264,-4.8262,-4.826,-4.8259,0,-4.7419,-4.7439,-4.7601,-4.7668,-4.7688,-4.7794,-4.785,-4.7938,-4.7958,-4.8081,-4.811,-4.8142,-4.8249,-4.8264,-4.839,-4.8394,-4.8565,-4.8551,-4.8542,-4.854,-4.8646,-4.8635,-4.899,-4.9036,-4.8735,-4.8738,-4.874,0,-4.7574,-4.7676,-4.7754,-4.7818,-4.786,-4.7963,-4.8026,-4.8029,-4.8096,-4.8183,-4.826,-4.8365,-4.8449,-4.8623,-4.8656,-4.8751,-4.8738,-4.8856,-4.8752,-4.8751,-4.8739,-4.8733,-4.8742,-4.8876,-4.8879,-4.8882,-4.8884,0,-4.7848,-4.7853,-4.7946,-4.8042,-4.8118,-4.8194,-4.8265,-4.8319,-4.8331,-4.8407,-4.8517,-4.8583,-4.8711,-4.8815,-4.8909,-4.8946,-4.8918,-4.8916,-4.8946,-4.895,-4.894,-4.8946,-4.8596,-4.8908,-4.8906,-4.8904,-4.8903,-4.8902,-4.8043,-4.8131,-4.82,-4.8304,-4.8357,-4.8424,-4.851,-4.8541,-4.8633,-4.8739,-4.8735,-4.8856,-4.8921,-4.9045,-4.9089,-4.9182,-4.9143,-4.9187,-4.9198,-4.9208,-4.9218,-4.8926,-4.9199,-4.9199,-4.9198,-4.9198,-4.9197,0,-4.8315,-4.8356,-4.8452,-4.8553,-4.8634,-4.86,-4.8676,-4.8746,-4.8854,-4.8918,-4.9001,-4.9127,-4.9227,-4.9268,-4.9366,-4.9432,-4.9421,-4.9458,-4.9453,-4.9462,-4.9248,-4.9212,-4.9465,-4.9465,-4.9465,-4.9465,-4.9465,-4.9465,-4.8465,-4.8612,-4.8625,-4.8797,-4.8838,-4.8957,-4.9003,-4.9064,-4.9115,-4.9257,-4.9341,-4.9367,-4.9421,-4.9522,-4.9612,-4.9621,-4.9658,-4.9701,-4.9704,-4.9504,-4.9477,-4.9451,-4.9417,-4.9709,-4.9709,-4.991,-4.9911,-4.9913]}]]